Flag for U.S.A. Weather past 2 weeks in Newport News, Virginia, U.S.A.

Now
64 °F

Partly sunny.


Feels Like: 64 °F
Forecast: 50 / 66 °F
Wind: 15 mph from Northwest

Location: Newport News / Williamsburg International Airport

Current Time: Oct 23, 2014 at 2:01:29 PM

Latest Report: Oct 23, 2014 at 12:54 PM


Visibility: 10 mi

Pressure: 29.88 "Hg

Humidity: 52%

Dew point: 46 °F

Location of Newport NewsLocation

Historic Weather in Newport News — Graph

°F

Newport News temperature yesterday

Maximum temperature yesterday: 60 °F (at 11:54 AM)
Minimum temperature yesterday: 56 °F (at 7:54 AM)
Average temperature yesterday: 57 °F

Past Weeks' High & Low Weather Summary

 TemperatureHumidityPressure
High87 °F (Oct 14, 2:54 PM)89% (Oct 20, 3:54 AM)30.28 "Hg (Oct 20, 3:54 AM)
Low40 °F (Oct 20, 3:54 AM)30% (Oct 19, 2:54 PM)29.69 "Hg (Oct 18, 1:54 PM)
Average67 °F67%29.97 "Hg
* Reported Oct 8 12:54 PM — Oct 23 12:54 PM, Newport News, Weather by CustomWeather, © 2014

Note: Actual official high and low records may vary slightly from our data, if they occured in-between our weather recording intervals... More about our weather records

Advertising

Newport News weather history for previous 24 hours

 ConditionsComfort  
Time TempWeatherWind HumidityBarometerVisibility
12:54 PM
Oct 23
64 °FPartly sunny.15 mph52%29.88 "Hg10 mi
11:54 AM64 °FPassing clouds.16 mph52%29.88 "Hg10 mi
10:54 AM62 °FSunny.13 mph52%29.89 "Hg10 mi
9:54 AM58 °FScattered clouds.23 mph58%29.91 "Hg10 mi
8:54 AM56 °FPartly sunny.13 mph62%29.90 "Hg10 mi
7:54 AM55 °FOvercast.13 mph64%29.90 "Hg10 mi
6:54 AM54 °FPartly cloudy.13 mph67%29.89 "Hg10 mi
5:54 AM55 °FOvercast.15 mph64%29.89 "Hg10 mi
4:54 AM55 °FOvercast.12 mph64%29.87 "Hg10 mi
3:54 AM55 °FOvercast.12 mph64%29.87 "Hg10 mi
2:54 AM56 °FOvercast.12 mph62%29.88 "Hg10 mi
1:54 AM56 °FPassing clouds.15 mph65%29.89 "Hg10 mi
12:54 AM56 °FOvercast.12 mph65%29.90 "Hg10 mi
11:54 PM
Oct 22
57 °FOvercast.16 mph67%29.90 "Hg10 mi
10:54 PM57 °FOvercast.14 mph69%29.91 "Hg10 mi
9:54 PM58 °FMostly cloudy.15 mph70%29.91 "Hg10 mi
8:54 PM57 °FMostly cloudy.18 mph74%29.90 "Hg10 mi
7:54 PM57 °FOvercast.13 mph78%29.90 "Hg10 mi
6:54 PM57 °FMostly cloudy.14 mph78%29.88 "Hg10 mi
5:54 PM57 °FOvercast.13 mph81%29.87 "Hg10 mi
4:54 PM57 °FLight rain. Overcast.17 mph83%29.85 "Hg10 mi
3:54 PM57 °FLight rain. Overcast.13 mph83%29.85 "Hg3 mi
2:54 PM58 °FLight rain. Overcast.15 mph81%29.84 "Hg8 mi
Weather by CustomWeather, © 2014

See weather overviewHow to use our weather pages